This demonstration page uses our WeatherBlox Daily Observations layout. Learn more.

Left ArrowRight Arrow

Hourly Observations for April 12, 2015

Temp ( °F °C ) Dew Point ( °F °C ) Humidity (%) Winds ( mph kmh ) Pressure ( in mb ) Visibility ( mi km ) Precip ( " mm )
12:53 am 00:53 Clear 41 5 22 -5.6 47 47 W 22 35 29.69 1005 10 16 N/A
1:53 am 01:53 Clear 39 3.9 22 -5.6 50 50 W 22 35 29.70 1006 10 16 N/A
2:53 am 02:53 Clear 36 2.2 22 -5.6 57 57 NW 13 20 29.74 1007 10 16 N/A
3:53 am 03:53 Clear 31 -0.6 21 -6.1 67 67 WSW 7 11 29.76 1008 10 16 N/A
4:53 am 04:53 Clear 25 -3.9 19 -7.2 78 78 SSW 8 13 29.79 1009 10 16 N/A
5:53 am 05:53 Clear 28 -2.2 21 -6.1 75 75 SSW 9 15 29.80 1009 10 16 N/A
6:53 am 06:53 Sunny 32 undefined 22 -5.6 66 66 WSW 8 13 29.84 1010 10 16 N/A
7:53 am 07:53 Cloudy 37 2.8 23 -5 57 57 SW 13 20 29.86 1011 10 16 N/A
8:53 am 08:53 Partly Cloudy 39 3.9 25 -3.9 57 57 SW 15 24 29.87 1012 10 16 N/A
9:53 am 09:53 Sunny 44 6.7 23 -5 43 43 W 22 35 29.87 1012 10 16 N/A
10:53 am 10:53 Cloudy 46 7.8 18 -7.8 32 32 W 29 46 29.87 1012 10 16 N/A
11:53 am 11:53 Cloudy with Light Rain 47 8.3 17 -8.3 30 30 WNW 25 41 29.87 1011 10 16 N/A
12:53 pm 12:53 Cloudy with Light Rain 41 5 26 -3.3 55 55 WNW 15 24 29.89 1012 5 8 N/A
1:53 pm 13:53 Cloudy 46 7.8 20 -6.7 35 35 NW 17 28 29.88 1012 10 16 0.01 0.25
2:53 pm 14:53 Cloudy 48 8.9 20 -6.7 33 33 NW 13 20 29.88 1012 10 16 N/A
3:53 pm 15:53 Mostly Cloudy 51 10.6 11 -11.7 20 20 W 25 41 29.89 1012 10 16 N/A
4:53 pm 16:53 Mostly Cloudy 50 10 10 -12.2 20 20 W 30 48 29.91 1013 10 16 N/A
5:53 pm 17:53 Mostly Cloudy 50 10 13 -10.6 22 22 W 31 50 29.92 1013 10 16 N/A
6:53 pm 18:53 Mostly Sunny 46 7.8 17 -8.3 31 31 W 21 33 29.93 1014 10 16 N/A
7:53 pm 19:53 Mostly Sunny 46 7.8 16 -8.9 30 30 W 25 41 29.94 1014 10 16 N/A
8:53 pm 20:53 Clear 43 6.1 18 -7.8 37 37 W 21 33 29.97 1015 10 16 N/A
9:53 pm 21:53 Clear 40 4.4 18 -7.8 41 41 W 18 30 30.00 1016 10 16 N/A
10:53 pm 22:53 Clear 36 2.2 19 -7.2 50 50 WSW 13 20 30.03 1017 10 16 N/A
11:53 pm 23:53 Clear 33 0.6 19 -7.2 56 56 SSW 10 17 30.06 1018 10 16 N/A

Powered by AerisWeather